FW1302 Weather Reports


Display with metric or nautical units.
time (UTC)temp
F
wind
direction
speed
MPH
gust
MPH
rain 1hr
in
rain 24hr
in
rain mn
in
humidity
%
barometer
mb
20260505193022 62 206 12.0 20.0 0.00 0.00 0.00 70 1026.5
20260505191020 61 220 9.0 12.0 0.00 0.00 0.00 70 1026.6
20260505190021 61 224 14.0 18.0 0.00 0.00 0.00 70 1026.5
20260505185021 60 225 15.0 21.0 0.00 0.00 0.00 71 1026.6
20260505184020 60 226 12.0 18.0 0.00 0.00 0.00 71 1026.7
20260505183022 60 206 17.0 25.0 0.00 0.00 0.00 71 1026.6
20260505182120 60 227 13.0 20.0 0.00 0.00 0.00 72 1026.8
20260505181121 60 226 13.0 17.0 0.00 0.00 0.00 73 1026.7
20260505180221 60 222 12.0 15.0 0.00 0.00 0.00 74 1026.9
20260505180123 60 225 12.0 18.0 0.00 0.00 0.00 74 1026.7
20260505175220 59 221 13.0 20.0 0.00 0.00 0.00 75 1026.7
20260505174221 58 221 11.0 15.0 0.00 0.00 0.00 77 1026.7
20260505173222 58 211 12.0 15.0 0.00 0.00 0.00 78 1026.7
20260505171222 58 226 13.0 19.0 0.00 0.00 0.00 79 1026.7
20260505170221 57 212 12.0 16.0 0.00 0.00 0.00 80 1026.8
20260505165320 57 224 11.0 15.0 0.00 0.00 0.00 81 1026.6
20260505164322 57 224 12.0 15.0 0.00 0.00 0.00 81 1026.6
20260505163322 57 217 9.0 14.0 0.00 0.00 0.00 81 1026.7
20260505162322 57 218 9.0 14.0 0.00 0.00 0.00 81 1026.6
20260505161322 57 208 11.0 16.0 0.00 0.00 0.00 81 1026.6
20260505160321 57 221 9.0 13.0 0.00 0.00 0.00 82 1026.7
20260505153322 56 215 10.0 17.0 0.00 0.00 0.00 82 1026.6
20260505152322 56 220 11.0 15.0 0.00 0.00 0.00 81 1026.6
20260505151323 56 226 11.0 17.0 0.00 0.00 0.00 81 1026.1
20260505150421 56 225 10.0 12.0 0.00 0.00 0.00 82 1026.4
20260505140321 56 221 7.0 9.0 0.00 0.00 0.00 82 1025.8
20260505130227 56 225 10.0 13.0 0.00 0.00 0.00 81 1025.6
20260505124420 56 221 11.0 15.0 0.00 0.00 0.00 81 1025.4
20260505124321 56 224 9.0 13.0 0.00 0.00 0.00 81 1025.5
20260505123420 56 219 10.0 14.0 0.00 0.00 0.00 80 1025.4
20260505122420 57 224 10.0 12.0 0.00 0.00 0.00 81 1025.3
20260505121421 57 226 11.0 13.0 0.00 0.00 0.00 80 1025.4
20260505120422 57 223 11.0 13.0 0.00 0.00 0.00 80 1025.4
20260505115521 57 234 10.0 14.0 0.00 0.00 0.00 79 1025.2
20260505114521 57 226 12.0 18.0 0.00 0.00 0.00 79 1025.4
20260505113620 57 225 13.0 18.0 0.00 0.00 0.00 79 1025.3
20260505112622 58 226 9.0 12.0 0.00 0.00 0.00 77 1025.2
20260505111620 58 227 10.0 14.0 0.00 0.00 0.00 78 1025.1
20260505111521 58 225 13.0 16.0 0.00 0.00 0.00 78 1025.0
20260505110620 58 226 13.0 17.0 0.00 0.00 0.00 76 1025.0
20260505101720 59 230 10.0 14.0 0.00 0.00 0.00 76 1024.3
20260505100722 59 225 13.0 20.0 0.00 0.00 0.00 75 1024.4
20260505095722 59 225 14.0 20.0 0.00 0.00 0.00 76 1024.2
20260505093721 59 226 14.0 21.0 0.00 0.00 0.00 75 1024.0
20260505093622 59 224 15.0 21.0 0.00 0.00 0.00 75 1024.1
20260505090721 60 225 12.0 16.0 0.00 0.00 0.00 74 1023.8
20260505085820 60 232 12.0 18.0 0.00 0.00 0.00 74 1023.8
20260505084820 60 223 13.0 17.0 0.00 0.00 0.00 74 1023.6
20260505083822 61 225 13.0 15.0 0.00 0.00 0.00 72 1023.5
20260505081919 62 223 12.0 17.0 0.00 0.00 0.00 70 1023.3
20260505080920 62 231 14.0 18.0 0.00 0.00 0.00 69 1023.1
20260505075920 63 226 14.0 17.0 0.00 0.00 0.00 70 1023.0
20260505074920 63 234 12.0 16.0 0.00 0.00 0.00 69 1022.9
20260505074822 63 226 15.0 23.0 0.00 0.00 0.00 69 1023.0
20260505073821 64 225 12.0 17.0 0.00 0.00 0.00 70 1022.8
20260505072919 64 223 10.0 14.0 0.00 0.00 0.00 71 1022.8
20260505071920 64 227 9.0 12.0 0.00 0.00 0.00 71 1022.7
20260505070921 64 226 12.0 17.0 0.00 0.00 0.00 70 1022.4
20260505065930 65 227 12.0 15.0 0.00 0.00 0.00 70 1022.2
20260505064930 65 223 11.0 17.0 0.00 0.00 0.00 70 1022.1
20260505063930 65 225 12.0 16.0 0.00 0.00 0.00 70 1021.9
20260505063028 66 225 10.0 13.0 0.00 0.00 0.00 70 1021.9
20260505062032 66 225 12.0 14.0 0.00 0.00 0.00 71 1021.8
20260505055131 67 226 11.0 15.0 0.00 0.00 0.00 69 1021.9
20260505054130 67 225 10.0 12.0 0.00 0.00 0.00 69 1021.7
20260505053229 67 225 10.0 12.0 0.00 0.00 0.00 68 1021.7
20260505052230 67 225 10.0 12.0 0.00 0.00 0.00 69 1021.6
20260505050330 67 226 11.0 13.0 0.00 0.00 0.00 68 1021.5
20260505050229 67 226 11.0 16.0 0.00 0.00 0.00 68 1021.6
20260505041132 67 225 8.0 9.0 0.00 0.00 0.00 66 1021.0
20260505035231 68 223 10.0 13.0 0.00 0.00 0.00 64 1020.8
20260505034232 68 224 11.0 14.0 0.00 0.00 0.00 65 1020.6
20260505033328 69 225 9.0 11.0 0.00 0.00 0.00 64 1020.6
20260505032331 69 224 10.0 12.0 0.00 0.00 0.00 63 1020.3
20260505032230 69 227 9.0 11.0 0.00 0.00 0.00 63 1020.3
20260505031229 69 226 10.0 13.0 0.00 0.00 0.00 62 1020.3
20260505030230 69 226 10.0 13.0 0.00 0.00 0.00 62 1020.0
20260505025229 70 223 10.0 13.0 0.00 0.00 0.00 60 1020.1
20260505023229 71 226 11.0 14.0 0.00 0.00 0.00 59 1019.6
20260505021229 71 223 12.0 17.0 0.00 0.00 0.00 56 1019.7
20260505020229 71 221 16.0 21.0 0.00 0.00 0.00 56 1019.5
20260505015228 72 226 14.0 16.0 0.00 0.00 0.00 56 1019.7
20260505015131 72 225 15.0 21.0 0.00 0.00 0.00 55 1019.7
20260505014130 72 225 14.0 19.0 0.00 0.00 0.00 56 1019.6
20260505014030 72 226 15.0 19.0 0.00 0.00 0.00 55 1019.7
20260505013129 72 225 14.0 18.0 0.00 0.00 0.00 55 1019.7
20260505012229 72 222 14.0 19.0 0.00 0.00 0.00 56 1019.7
20260505011328 71 223 17.0 22.0 0.00 0.00 0.00 56 1019.6
20260505010329 71 223 16.0 21.0 0.00 0.00 0.00 56 1019.7
20260505004329 72 220 19.0 24.0 0.00 0.00 0.00 55 1019.8
20260505003330 71 224 18.0 24.0 0.00 0.00 0.00 54 1019.7
20260505002428 72 225 20.0 26.0 0.00 0.00 0.00 54 1019.7
20260505001429 71 226 17.0 24.0 0.00 0.00 0.00 55 1019.7
20260505000429 71 222 16.0 21.0 0.00 0.00 0.00 55 1019.6
20260504234528 71 228 15.0 21.0 0.00 0.00 0.00 55 1019.7
20260504233530 71 224 16.0 23.0 0.00 0.00 0.00 54 1019.8
20260504232629 71 222 15.0 24.0 0.00 0.00 0.00 54 1019.7
20260504231630 71 223 19.0 27.0 0.00 0.00 0.00 55 1019.5
20260504230629 71 224 17.0 25.0 0.00 0.00 0.00 55 1019.6
20260504225628 71 222 19.0 28.0 0.00 0.00 0.00 55 1019.6
20260504224728 70 219 17.0 25.0 0.00 0.00 0.00 56 1019.7
20260504223730 70 225 18.0 24.0 0.00 0.00 0.00 56 1020.0
20260504222730 70 227 17.0 23.0 0.00 0.00 0.00 58 1020.0
20260504220828 69 219 13.0 20.0 0.00 0.00 0.00 60 1020.3
20260504215828 69 215 16.0 20.0 0.00 0.00 0.00 60 1020.4
20260504215730 69 225 19.0 23.0 0.00 0.00 0.00 60 1020.5
20260504214729 68 225 17.0 24.0 0.00 0.00 0.00 60 1020.5
20260504214628 68 226 17.0 26.0 0.00 0.00 0.00 61 1020.5
20260504212630 67 222 17.0 24.0 0.00 0.00 0.00 63 1020.8
20260504211630 67 225 19.0 24.0 0.00 0.00 0.00 64 1020.9
20260504210729 67 220 19.0 27.0 0.00 0.00 0.00 64 1020.8
20260504204830 67 225 20.0 24.0 0.00 0.00 0.00 63 1021.0
20260504201030 66 209 13.0 18.0 0.00 0.00 0.00 65 1021.4
20260504195030 65 219 15.0 18.0 0.00 0.00 0.00 66 1021.6
20260504194128 65 225 17.0 24.0 0.00 0.00 0.00 66 1021.7